Year,Month,Day,Hour,Minute,Value (Times are PST for temperature in C)
2015,07,18,00,00,23.60
2015,07,18,00,01,23.60
2015,07,18,00,02,23.60
2015,07,18,00,03,23.60
2015,07,18,00,04,23.60
2015,07,18,00,05,23.50
2015,07,18,00,06,23.50
2015,07,18,00,07,23.50
2015,07,18,00,08,23.50
2015,07,18,00,09,23.50
2015,07,18,00,10,23.50
2015,07,18,00,11,23.50
2015,07,18,00,12,23.60
2015,07,18,00,13,23.60
2015,07,18,00,14,23.60
2015,07,18,00,15,23.60
2015,07,18,00,16,23.60
2015,07,18,00,17,23.50
2015,07,18,00,18,23.50
2015,07,18,00,19,23.50
2015,07,18,00,20,23.50
2015,07,18,00,21,23.50
2015,07,18,00,22,23.50
2015,07,18,00,23,23.50
2015,07,18,00,24,23.50
2015,07,18,00,25,23.50
2015,07,18,00,26,23.50
2015,07,18,00,27,23.50
2015,07,18,00,28,23.60
2015,07,18,00,29,23.60
2015,07,18,00,30,23.60
2015,07,18,00,31,23.60
2015,07,18,00,32,23.60
2015,07,18,00,33,23.60
2015,07,18,00,34,23.60
2015,07,18,00,35,23.60
2015,07,18,00,36,23.60
2015,07,18,00,37,23.50
2015,07,18,00,38,23.60
2015,07,18,00,39,23.50
2015,07,18,00,40,23.50
2015,07,18,00,41,23.60
2015,07,18,00,42,23.60
2015,07,18,00,43,23.60
2015,07,18,00,44,23.50
2015,07,18,00,45,23.50
2015,07,18,00,46,23.40
2015,07,18,00,47,23.40
2015,07,18,00,48,23.40
2015,07,18,00,49,23.40
2015,07,18,00,50,23.40
2015,07,18,00,51,23.40
2015,07,18,00,52,23.30
2015,07,18,00,53,23.30
2015,07,18,00,54,23.30
2015,07,18,00,55,23.30
2015,07,18,00,56,23.30
2015,07,18,00,57,23.30
2015,07,18,00,58,23.40
2015,07,18,00,59,23.40
2015,07,18,01,00,23.40
2015,07,18,01,01,23.50
2015,07,18,01,02,23.50
2015,07,18,01,03,23.50
2015,07,18,01,04,23.50
2015,07,18,01,05,23.50
2015,07,18,01,06,23.50
2015,07,18,01,07,23.40
2015,07,18,01,08,23.40
2015,07,18,01,09,23.40
2015,07,18,01,10,23.40
2015,07,18,01,11,23.40
2015,07,18,01,12,23.30
2015,07,18,01,13,23.30
2015,07,18,01,14,23.30
2015,07,18,01,15,23.30
2015,07,18,01,16,23.30
2015,07,18,01,17,23.30
2015,07,18,01,18,23.20
2015,07,18,01,19,23.20
2015,07,18,01,20,23.20
2015,07,18,01,21,23.20
2015,07,18,01,22,23.20
2015,07,18,01,23,23.20
2015,07,18,01,24,23.20
2015,07,18,01,25,23.10
2015,07,18,01,26,23.10
2015,07,18,01,27,23.10
2015,07,18,01,28,23.10
2015,07,18,01,29,23.10
2015,07,18,01,30,23.10
2015,07,18,01,31,23.10
2015,07,18,01,32,23.10
2015,07,18,01,33,23.10
2015,07,18,01,34,23.10
2015,07,18,01,35,23.10
2015,07,18,01,36,23.10
2015,07,18,01,37,23.10
2015,07,18,01,38,23.10
2015,07,18,01,39,23.10
2015,07,18,01,40,23.10
2015,07,18,01,41,23.10
2015,07,18,01,42,23.10
2015,07,18,01,43,23.10
2015,07,18,01,44,23.10
2015,07,18,01,45,23.10
2015,07,18,01,46,23.00
2015,07,18,01,47,23.00
2015,07,18,01,48,23.00
2015,07,18,01,49,23.00
2015,07,18,01,50,23.00
2015,07,18,01,51,23.00
2015,07,18,01,52,23.00
2015,07,18,01,53,23.00
2015,07,18,01,54,23.00
2015,07,18,01,55,23.10
2015,07,18,01,56,23.10
2015,07,18,01,57,23.10
2015,07,18,01,58,23.10
2015,07,18,01,59,23.10
2015,07,18,02,00,23.10
2015,07,18,02,01,23.10
2015,07,18,02,02,23.10
2015,07,18,02,03,23.10
2015,07,18,02,04,23.10
2015,07,18,02,05,23.00
2015,07,18,02,06,23.00
2015,07,18,02,07,23.00
2015,07,18,02,08,23.00
2015,07,18,02,09,23.00
2015,07,18,02,10,23.00
2015,07,18,02,11,22.90
2015,07,18,02,12,22.90
2015,07,18,02,13,22.90
2015,07,18,02,14,22.90
2015,07,18,02,15,22.90
2015,07,18,02,16,22.80
2015,07,18,02,17,22.90
2015,07,18,02,18,22.90
2015,07,18,02,19,22.90
2015,07,18,02,20,22.90
2015,07,18,02,21,22.90
2015,07,18,02,22,22.90
2015,07,18,02,23,22.90
2015,07,18,02,24,22.90
2015,07,18,02,25,22.90
2015,07,18,02,26,22.90
2015,07,18,02,27,22.90
2015,07,18,02,28,22.90
2015,07,18,02,29,22.90
2015,07,18,02,30,22.90
2015,07,18,02,31,22.90
2015,07,18,02,32,22.90
2015,07,18,02,33,22.90
2015,07,18,02,34,22.90
2015,07,18,02,35,22.90
2015,07,18,02,36,22.90
2015,07,18,02,37,22.90
2015,07,18,02,38,22.90
2015,07,18,02,39,22.90
2015,07,18,02,40,22.80
2015,07,18,02,41,22.80
2015,07,18,02,42,22.80
2015,07,18,02,43,22.80
2015,07,18,02,44,22.80
2015,07,18,02,45,22.70
2015,07,18,02,46,22.70
2015,07,18,02,47,22.70
2015,07,18,02,48,22.70
2015,07,18,02,49,22.60
2015,07,18,02,50,22.60
2015,07,18,02,51,22.60
2015,07,18,02,52,22.60
2015,07,18,02,53,22.50
2015,07,18,02,54,22.50
2015,07,18,02,55,22.40
2015,07,18,02,56,22.40
2015,07,18,02,57,22.40
2015,07,18,02,58,22.40
2015,07,18,02,59,22.30
2015,07,18,03,00,22.30
2015,07,18,03,01,22.30
2015,07,18,03,02,22.30
2015,07,18,03,03,22.30
2015,07,18,03,04,22.30
2015,07,18,03,05,22.20
2015,07,18,03,06,22.20
2015,07,18,03,07,22.20
2015,07,18,03,08,22.20
2015,07,18,03,09,22.20
2015,07,18,03,10,22.20
2015,07,18,03,11,22.20
2015,07,18,03,12,22.20
2015,07,18,03,13,22.20
2015,07,18,03,14,22.20
2015,07,18,03,15,22.20
2015,07,18,03,16,22.20
2015,07,18,03,17,22.20
2015,07,18,03,18,22.20
2015,07,18,03,19,22.20
2015,07,18,03,20,22.20
2015,07,18,03,21,22.20
2015,07,18,03,22,22.10
2015,07,18,03,23,22.10
2015,07,18,03,24,22.10
2015,07,18,03,25,22.10
2015,07,18,03,26,22.10
2015,07,18,03,27,22.10
2015,07,18,03,28,22.10
2015,07,18,03,29,22.00
2015,07,18,03,30,22.00
2015,07,18,03,31,22.00
2015,07,18,03,32,22.00
2015,07,18,03,33,22.00
2015,07,18,03,34,21.90
2015,07,18,03,35,21.90
2015,07,18,03,36,21.90
2015,07,18,03,37,21.90
2015,07,18,03,38,21.90
2015,07,18,03,39,21.90
2015,07,18,03,40,21.90
2015,07,18,03,41,21.80
2015,07,18,03,42,21.80
2015,07,18,03,43,21.80
2015,07,18,03,44,21.80
2015,07,18,03,45,21.80
2015,07,18,03,46,21.80
2015,07,18,03,47,21.80
2015,07,18,03,48,21.80
2015,07,18,03,49,21.80
2015,07,18,03,50,21.80
2015,07,18,03,51,21.70
2015,07,18,03,52,21.70
2015,07,18,03,53,21.70
2015,07,18,03,54,21.70
2015,07,18,03,55,21.70
2015,07,18,03,56,21.70
2015,07,18,03,57,21.70
2015,07,18,03,58,21.70
2015,07,18,03,59,21.70
2015,07,18,04,00,21.70
2015,07,18,04,01,21.70
2015,07,18,04,02,21.70
2015,07,18,04,03,21.70
2015,07,18,04,04,21.60
2015,07,18,04,05,21.60
2015,07,18,04,06,21.60
2015,07,18,04,07,21.60
2015,07,18,04,08,21.60
2015,07,18,04,09,21.60
2015,07,18,04,10,21.50
2015,07,18,04,11,21.50
2015,07,18,04,12,21.50
2015,07,18,04,13,21.50
2015,07,18,04,14,21.50
2015,07,18,04,15,21.50
2015,07,18,04,16,21.50
2015,07,18,04,17,21.50
2015,07,18,04,18,21.50
2015,07,18,04,19,21.50
2015,07,18,04,20,21.50
2015,07,18,04,21,21.40
2015,07,18,04,22,21.40
2015,07,18,04,23,21.50
2015,07,18,04,24,21.40
2015,07,18,04,25,21.40
2015,07,18,04,26,21.40
2015,07,18,04,27,21.40
2015,07,18,04,28,21.40
2015,07,18,04,29,21.40
2015,07,18,04,30,21.40
2015,07,18,04,31,21.40
2015,07,18,04,32,21.30
2015,07,18,04,33,21.30
2015,07,18,04,34,21.30
2015,07,18,04,35,21.30
2015,07,18,04,36,21.30
2015,07,18,04,37,21.30
2015,07,18,04,38,21.30
2015,07,18,04,39,21.30
2015,07,18,04,40,21.30
2015,07,18,04,41,21.20
2015,07,18,04,42,21.20
2015,07,18,04,43,21.20
2015,07,18,04,44,21.20
2015,07,18,04,45,21.20
2015,07,18,04,46,21.20
2015,07,18,04,47,21.10
2015,07,18,04,48,21.10
2015,07,18,04,49,21.10
2015,07,18,04,50,21.10
2015,07,18,04,51,21.10
2015,07,18,04,52,21.00
2015,07,18,04,53,21.00
2015,07,18,04,54,21.00
2015,07,18,04,55,21.00
2015,07,18,04,56,20.90
2015,07,18,04,57,20.90
2015,07,18,04,58,20.90
2015,07,18,04,59,20.90
2015,07,18,05,00,20.90
2015,07,18,05,01,20.80
2015,07,18,05,02,20.80
2015,07,18,05,03,20.80
2015,07,18,05,04,20.70
2015,07,18,05,05,20.70
2015,07,18,05,06,20.60
2015,07,18,05,07,20.60
2015,07,18,05,08,20.60
2015,07,18,05,09,20.50
2015,07,18,05,10,20.50
2015,07,18,05,11,20.40
2015,07,18,05,12,20.40
2015,07,18,05,13,20.40
2015,07,18,05,14,20.30
2015,07,18,05,15,20.30
2015,07,18,05,16,20.30
2015,07,18,05,17,20.30
2015,07,18,05,18,20.20
2015,07,18,05,19,20.20
2015,07,18,05,20,20.20
2015,07,18,05,21,20.20
2015,07,18,05,22,20.20
2015,07,18,05,23,20.20
2015,07,18,05,24,20.20
2015,07,18,05,25,20.20
2015,07,18,05,26,20.20
2015,07,18,05,27,20.20
2015,07,18,05,28,20.20
2015,07,18,05,29,20.20
2015,07,18,05,30,20.20
2015,07,18,05,31,20.20
2015,07,18,05,32,20.20
2015,07,18,05,33,20.20
2015,07,18,05,34,20.20
2015,07,18,05,35,20.20
2015,07,18,05,36,20.20
2015,07,18,05,37,20.20
2015,07,18,05,38,20.20
2015,07,18,05,39,20.20
2015,07,18,05,40,20.20
2015,07,18,05,41,20.20
2015,07,18,05,42,20.20
2015,07,18,05,43,20.20
2015,07,18,05,44,20.30
2015,07,18,05,45,20.30
2015,07,18,05,46,20.30
2015,07,18,05,47,20.30
2015,07,18,05,48,20.30
2015,07,18,05,49,20.30
2015,07,18,05,50,20.30
2015,07,18,05,51,20.30
2015,07,18,05,52,20.30
2015,07,18,05,53,20.30
2015,07,18,05,54,20.30
2015,07,18,05,55,20.30
2015,07,18,05,56,20.30
2015,07,18,05,57,20.30
2015,07,18,05,58,20.30
2015,07,18,05,59,20.30
2015,07,18,06,00,20.30
2015,07,18,06,01,20.30
2015,07,18,06,02,20.30
2015,07,18,06,03,20.30
2015,07,18,06,04,20.30
2015,07,18,06,05,20.40
2015,07,18,06,06,20.40
2015,07,18,06,07,20.40
2015,07,18,06,08,20.40
2015,07,18,06,09,20.40
2015,07,18,06,10,20.30
2015,07,18,06,11,20.30
2015,07,18,06,12,20.30
2015,07,18,06,13,20.40
2015,07,18,06,14,20.40
2015,07,18,06,15,20.40
2015,07,18,06,16,20.40
2015,07,18,06,17,20.50
2015,07,18,06,18,20.60
2015,07,18,06,19,20.60
2015,07,18,06,20,20.60
2015,07,18,06,21,20.60
2015,07,18,06,22,20.60
2015,07,18,06,23,20.60
2015,07,18,06,24,20.60
2015,07,18,06,25,20.70
2015,07,18,06,26,20.70
2015,07,18,06,27,20.70
2015,07,18,06,28,20.70
2015,07,18,06,29,20.70
2015,07,18,06,30,20.70
2015,07,18,06,31,20.70
2015,07,18,06,32,20.70
2015,07,18,06,33,20.70
2015,07,18,06,34,20.70
2015,07,18,06,35,20.70
2015,07,18,06,36,20.70
2015,07,18,06,37,20.70
2015,07,18,06,38,20.70
2015,07,18,06,39,20.70
2015,07,18,06,40,20.70
2015,07,18,06,41,20.70
2015,07,18,06,42,20.70
2015,07,18,06,43,20.70
2015,07,18,06,44,20.70
2015,07,18,06,45,20.70
2015,07,18,06,46,20.80
2015,07,18,06,47,20.70
2015,07,18,06,48,20.80
2015,07,18,06,49,20.80
2015,07,18,06,50,20.80
2015,07,18,06,51,20.80
2015,07,18,06,52,20.80
2015,07,18,06,53,20.80
2015,07,18,06,54,20.80
2015,07,18,06,55,20.80
2015,07,18,06,56,20.80
2015,07,18,06,57,20.80
2015,07,18,06,58,20.80
2015,07,18,06,59,20.80
2015,07,18,07,00,20.80
2015,07,18,07,01,20.80
2015,07,18,07,02,20.80
2015,07,18,07,03,20.90
2015,07,18,07,04,20.90
2015,07,18,07,05,20.90
2015,07,18,07,06,20.90
2015,07,18,07,07,20.90
2015,07,18,07,08,21.00
2015,07,18,07,09,21.00
2015,07,18,07,10,21.10
2015,07,18,07,11,21.10
2015,07,18,07,12,21.10
2015,07,18,07,13,21.20
2015,07,18,07,14,21.20
2015,07,18,07,15,21.20
2015,07,18,07,16,21.20
2015,07,18,07,17,21.30
2015,07,18,07,18,21.30
2015,07,18,07,19,21.30
2015,07,18,07,20,21.40
2015,07,18,07,21,21.40
2015,07,18,07,22,21.40
2015,07,18,07,23,21.50
2015,07,18,07,24,21.50
2015,07,18,07,25,21.60
2015,07,18,07,26,21.60
2015,07,18,07,27,21.60
2015,07,18,07,28,21.70
2015,07,18,07,29,21.70
2015,07,18,07,30,21.70
2015,07,18,07,31,21.70
2015,07,18,07,32,21.80
2015,07,18,07,33,21.80
2015,07,18,07,34,21.80
2015,07,18,07,35,21.80
2015,07,18,07,36,21.80
2015,07,18,07,37,21.90
2015,07,18,07,38,21.90
2015,07,18,07,39,21.90
2015,07,18,07,40,22.00
2015,07,18,07,41,22.00
2015,07,18,07,42,22.10
2015,07,18,07,43,22.10
2015,07,18,07,44,22.10
2015,07,18,07,45,22.10
2015,07,18,07,46,22.10
2015,07,18,07,47,22.20
2015,07,18,07,48,22.20
2015,07,18,07,49,22.20
2015,07,18,07,50,22.30
2015,07,18,07,51,22.30
2015,07,18,07,52,22.30
2015,07,18,07,53,22.40
2015,07,18,07,54,22.40
2015,07,18,07,55,22.40
2015,07,18,07,56,22.40
2015,07,18,07,57,22.40
2015,07,18,07,58,22.40
2015,07,18,07,59,22.40
2015,07,18,08,00,22.40
2015,07,18,08,01,22.50
2015,07,18,08,02,22.50
2015,07,18,08,03,22.50
2015,07,18,08,04,22.60
2015,07,18,08,05,22.60
2015,07,18,08,06,22.60
2015,07,18,08,07,22.70
2015,07,18,08,08,22.70
2015,07,18,08,09,22.80
2015,07,18,08,10,22.80
2015,07,18,08,11,22.80
2015,07,18,08,12,22.80
2015,07,18,08,13,22.90
2015,07,18,08,14,22.90
2015,07,18,08,15,22.90
2015,07,18,08,16,22.90
2015,07,18,08,17,22.90
2015,07,18,08,18,23.00
2015,07,18,08,19,23.00
2015,07,18,08,20,23.00
2015,07,18,08,21,23.00
2015,07,18,08,22,23.10
2015,07,18,08,23,23.10
2015,07,18,08,24,23.20
2015,07,18,08,25,23.20
2015,07,18,08,26,23.20
2015,07,18,08,27,23.30
2015,07,18,08,28,23.30
2015,07,18,08,29,23.30
2015,07,18,08,30,23.30
2015,07,18,08,31,23.40
2015,07,18,08,32,23.40
2015,07,18,08,33,23.40
2015,07,18,08,34,23.40
2015,07,18,08,35,23.30
2015,07,18,08,36,23.40
2015,07,18,08,37,23.40
2015,07,18,08,38,23.50
2015,07,18,08,39,23.60
2015,07,18,08,40,23.60
2015,07,18,08,41,23.60
2015,07,18,08,42,23.70
2015,07,18,08,43,23.70
2015,07,18,08,44,23.70
2015,07,18,08,45,23.70
2015,07,18,08,46,23.70
2015,07,18,08,47,23.80
2015,07,18,08,48,23.80
2015,07,18,08,49,23.80
2015,07,18,08,50,23.80
2015,07,18,08,51,23.80
2015,07,18,08,52,23.90
2015,07,18,08,53,24.00
2015,07,18,08,54,24.00
2015,07,18,08,55,24.00
2015,07,18,08,56,24.10
2015,07,18,08,57,24.10
2015,07,18,08,58,24.10
2015,07,18,08,59,24.10
2015,07,18,09,00,24.10
2015,07,18,09,01,24.10
2015,07,18,09,02,24.20
2015,07,18,09,03,24.20
2015,07,18,09,04,24.20
2015,07,18,09,05,24.20
2015,07,18,09,06,24.20
2015,07,18,09,07,24.20
2015,07,18,09,08,24.20
2015,07,18,09,09,24.20
2015,07,18,09,10,24.20
2015,07,18,09,11,24.20
2015,07,18,09,12,24.20
2015,07,18,09,13,24.30
2015,07,18,09,14,24.30
2015,07,18,09,15,24.30
2015,07,18,09,16,24.30
2015,07,18,09,17,24.30
2015,07,18,09,18,24.30
2015,07,18,09,19,24.30
2015,07,18,09,20,24.40
2015,07,18,09,21,24.40
2015,07,18,09,22,24.40
2015,07,18,09,23,24.40
2015,07,18,09,24,24.50
2015,07,18,09,25,24.50
2015,07,18,09,26,24.40
2015,07,18,09,27,24.50
2015,07,18,09,28,24.50
2015,07,18,09,29,24.50
2015,07,18,09,30,24.50
2015,07,18,09,31,24.40
2015,07,18,09,32,24.40
2015,07,18,09,33,24.40
2015,07,18,09,34,24.40
2015,07,18,09,35,24.40
2015,07,18,09,36,24.40
2015,07,18,09,37,24.40
2015,07,18,09,38,24.40
2015,07,18,09,39,24.40
2015,07,18,09,40,24.40
2015,07,18,09,41,24.50
2015,07,18,09,42,24.60
2015,07,18,09,43,24.70
2015,07,18,09,44,24.70
2015,07,18,09,45,24.80
2015,07,18,09,46,24.90
2015,07,18,09,47,25.00
2015,07,18,09,48,25.10
2015,07,18,09,49,25.20
2015,07,18,09,50,25.30
2015,07,18,09,51,25.40
2015,07,18,09,52,25.40
2015,07,18,09,53,25.50
2015,07,18,09,54,25.50
2015,07,18,09,55,25.50
2015,07,18,09,56,25.60
2015,07,18,09,57,25.60
2015,07,18,09,58,25.60
2015,07,18,09,59,25.60
2015,07,18,10,00,25.70
2015,07,18,10,01,25.70
2015,07,18,10,02,25.80
2015,07,18,10,03,25.80
2015,07,18,10,04,25.80
2015,07,18,10,05,25.80
2015,07,18,10,06,25.90
2015,07,18,10,07,25.90
2015,07,18,10,08,26.00
2015,07,18,10,09,26.10
2015,07,18,10,10,26.20
2015,07,18,10,11,26.30
2015,07,18,10,12,26.30
2015,07,18,10,13,26.30
2015,07,18,10,14,26.30
2015,07,18,10,15,26.40
2015,07,18,10,16,26.50
2015,07,18,10,17,26.60
2015,07,18,10,18,26.70
2015,07,18,10,19,26.70
2015,07,18,10,20,26.80
2015,07,18,10,21,26.90
2015,07,18,10,22,26.90
2015,07,18,10,23,27.00
2015,07,18,10,24,27.00
2015,07,18,10,25,27.10
2015,07,18,10,26,27.20
2015,07,18,10,27,27.30
2015,07,18,10,28,27.30
2015,07,18,10,29,27.40
2015,07,18,10,30,27.30
2015,07,18,10,31,27.30
2015,07,18,10,32,27.20
2015,07,18,10,33,27.20
2015,07,18,10,34,27.20
2015,07,18,10,35,27.10
2015,07,18,10,36,27.10
2015,07,18,10,37,27.10
2015,07,18,10,38,27.10
2015,07,18,10,39,27.10
2015,07,18,10,40,27.20
2015,07,18,10,41,27.20
2015,07,18,10,42,27.20
2015,07,18,10,43,27.30
2015,07,18,10,44,27.40
2015,07,18,10,45,27.40
2015,07,18,10,46,27.50
2015,07,18,10,47,27.60
2015,07,18,10,48,27.60
2015,07,18,10,49,27.60
2015,07,18,10,50,27.70
2015,07,18,10,51,27.70
2015,07,18,10,52,27.60
2015,07,18,10,53,27.60
2015,07,18,10,54,27.70
2015,07,18,10,55,27.70
2015,07,18,10,56,27.70
2015,07,18,10,57,27.70
2015,07,18,10,58,27.70
2015,07,18,10,59,27.70
2015,07,18,11,00,27.70
2015,07,18,11,01,27.70
2015,07,18,11,02,27.70
2015,07,18,11,03,27.80
2015,07,18,11,04,27.90
2015,07,18,11,05,27.90
2015,07,18,11,06,27.90
2015,07,18,11,07,27.80
2015,07,18,11,08,27.80
2015,07,18,11,09,27.90
2015,07,18,11,10,27.90
2015,07,18,11,11,27.80
2015,07,18,11,12,27.80
2015,07,18,11,13,27.80
2015,07,18,11,14,27.80
2015,07,18,11,15,27.80
2015,07,18,11,16,27.80
2015,07,18,11,17,27.90
2015,07,18,11,18,27.90
2015,07,18,11,19,27.90
2015,07,18,11,20,27.90
2015,07,18,11,21,27.90
2015,07,18,11,22,27.80
2015,07,18,11,23,27.80
2015,07,18,11,24,27.60
2015,07,18,11,25,27.40
2015,07,18,11,26,27.30
2015,07,18,11,27,27.20
2015,07,18,11,28,27.20
2015,07,18,11,29,27.20
2015,07,18,11,30,27.10
2015,07,18,11,31,27.00
2015,07,18,11,32,26.90
2015,07,18,11,33,26.90
2015,07,18,11,34,26.80
2015,07,18,11,35,26.80
2015,07,18,11,36,26.90
2015,07,18,11,37,26.90
2015,07,18,11,38,26.90
2015,07,18,11,39,27.00
2015,07,18,11,40,27.10
2015,07,18,11,41,27.20
2015,07,18,11,42,27.40
2015,07,18,11,43,27.50
2015,07,18,11,44,27.70
2015,07,18,11,45,27.80
2015,07,18,11,46,27.90
2015,07,18,11,47,27.90
2015,07,18,11,48,27.90
2015,07,18,11,49,27.80
2015,07,18,11,50,27.80
2015,07,18,11,51,27.80
2015,07,18,11,52,27.80
2015,07,18,11,53,27.80
2015,07,18,11,54,27.80
2015,07,18,11,55,27.90
2015,07,18,11,56,27.90
2015,07,18,11,57,27.90
2015,07,18,11,58,27.90
2015,07,18,11,59,27.90
2015,07,18,12,00,27.80
2015,07,18,12,01,27.80
2015,07,18,12,02,27.80
2015,07,18,12,03,27.90
2015,07,18,12,04,28.00
2015,07,18,12,05,28.10
2015,07,18,12,06,28.20
2015,07,18,12,07,28.30
2015,07,18,12,08,28.40
2015,07,18,12,09,28.50
2015,07,18,12,10,28.60
2015,07,18,12,11,28.60
2015,07,18,12,12,28.70
2015,07,18,12,13,28.80
2015,07,18,12,14,28.80
2015,07,18,12,15,28.90
2015,07,18,12,16,28.90
2015,07,18,12,17,28.90
2015,07,18,12,18,29.00
2015,07,18,12,19,29.00
2015,07,18,12,20,29.00
2015,07,18,12,21,29.00
2015,07,18,12,22,29.10
2015,07,18,12,23,29.00
2015,07,18,12,24,28.90
2015,07,18,12,25,28.90
2015,07,18,12,26,28.90
2015,07,18,12,27,29.00
2015,07,18,12,28,29.00
2015,07,18,12,29,29.00
2015,07,18,12,30,29.00
2015,07,18,12,31,29.00
2015,07,18,12,32,29.00
2015,07,18,12,33,29.00
2015,07,18,12,34,29.20
2015,07,18,12,35,29.30
2015,07,18,12,36,29.30
2015,07,18,12,37,29.30
2015,07,18,12,38,29.30
2015,07,18,12,39,29.40
2015,07,18,12,40,29.50
2015,07,18,12,41,29.60
2015,07,18,12,42,29.60
2015,07,18,12,43,29.70
2015,07,18,12,44,29.80
2015,07,18,12,45,29.80
2015,07,18,12,46,29.90
2015,07,18,12,47,30.00
2015,07,18,12,48,30.10
2015,07,18,12,49,30.10
2015,07,18,12,50,30.10
2015,07,18,12,51,30.10
2015,07,18,12,52,30.20
2015,07,18,12,53,30.20
2015,07,18,12,54,30.20
2015,07,18,12,55,30.20
2015,07,18,12,56,30.20
2015,07,18,12,57,30.10
2015,07,18,12,58,30.10
2015,07,18,12,59,30.20
2015,07,18,13,00,30.30
2015,07,18,13,01,30.30
2015,07,18,13,02,30.30
2015,07,18,13,03,30.30
2015,07,18,13,04,30.30
2015,07,18,13,05,30.30
2015,07,18,13,06,30.30
2015,07,18,13,07,30.40
2015,07,18,13,08,30.50
2015,07,18,13,09,30.50
2015,07,18,13,10,30.50
2015,07,18,13,11,30.50
2015,07,18,13,12,30.50
2015,07,18,13,13,30.50
2015,07,18,13,14,30.40
2015,07,18,13,15,30.50
2015,07,18,13,16,30.50
2015,07,18,13,17,30.50
2015,07,18,13,18,30.60
2015,07,18,13,19,30.60
2015,07,18,13,20,30.70
2015,07,18,13,21,30.70
2015,07,18,13,22,30.80
2015,07,18,13,23,30.80
2015,07,18,13,24,30.90
2015,07,18,13,25,30.90
2015,07,18,13,26,30.90
2015,07,18,13,27,30.90
2015,07,18,13,28,30.90
2015,07,18,13,29,30.80
2015,07,18,13,30,30.70
2015,07,18,13,31,30.70
2015,07,18,13,32,30.60
2015,07,18,13,33,30.60
2015,07,18,13,34,30.60
2015,07,18,13,35,30.60
2015,07,18,13,36,30.60
2015,07,18,13,37,30.60
2015,07,18,13,38,30.50
2015,07,18,13,39,30.50
2015,07,18,13,40,30.60
2015,07,18,13,41,30.60
2015,07,18,13,42,30.60
2015,07,18,13,43,30.60
2015,07,18,13,44,30.60
2015,07,18,13,45,30.70
2015,07,18,13,46,30.70
2015,07,18,13,47,30.80
2015,07,18,13,48,30.80
2015,07,18,13,49,30.70
2015,07,18,13,50,30.70
2015,07,18,13,51,30.60
2015,07,18,13,52,30.60
2015,07,18,13,53,30.60
2015,07,18,13,54,30.60
2015,07,18,13,55,30.60
2015,07,18,13,56,30.60
2015,07,18,13,57,30.50
2015,07,18,13,58,30.50
2015,07,18,13,59,30.50
2015,07,18,14,00,30.50
2015,07,18,14,01,30.50
2015,07,18,14,02,30.60
2015,07,18,14,03,30.60
2015,07,18,14,04,30.60
2015,07,18,14,05,30.60
2015,07,18,14,06,30.60
2015,07,18,14,07,30.70
2015,07,18,14,08,30.60
2015,07,18,14,09,30.50
2015,07,18,14,10,30.40
2015,07,18,14,11,30.40
2015,07,18,14,12,30.30
2015,07,18,14,13,30.20
2015,07,18,14,14,30.10
2015,07,18,14,15,30.10
2015,07,18,14,16,30.00
2015,07,18,14,17,29.80
2015,07,18,14,18,29.60
2015,07,18,14,19,29.40
2015,07,18,14,20,29.20
2015,07,18,14,21,29.10
2015,07,18,14,22,29.00
2015,07,18,14,23,29.00
2015,07,18,14,24,28.90
2015,07,18,14,25,28.70
2015,07,18,14,26,28.60
2015,07,18,14,27,28.60
2015,07,18,14,28,28.50
2015,07,18,14,29,28.30
2015,07,18,14,30,28.20
2015,07,18,14,31,28.10
2015,07,18,14,32,28.00
2015,07,18,14,33,27.90
2015,07,18,14,34,27.80
2015,07,18,14,35,27.80
2015,07,18,14,36,27.80
2015,07,18,14,37,27.80
2015,07,18,14,38,27.80
2015,07,18,14,39,27.90
2015,07,18,14,40,28.00
2015,07,18,14,41,28.00
2015,07,18,14,42,27.90
2015,07,18,14,43,27.80
2015,07,18,14,44,27.70
2015,07,18,14,45,27.60
2015,07,18,14,46,27.50
2015,07,18,14,47,27.50
2015,07,18,14,48,27.50
2015,07,18,14,49,27.50
2015,07,18,14,50,27.60
2015,07,18,14,51,27.70
2015,07,18,14,52,27.80
2015,07,18,14,53,28.00
2015,07,18,14,54,28.20
2015,07,18,14,55,28.40
2015,07,18,14,56,28.60
2015,07,18,14,57,28.90
2015,07,18,14,58,29.00
2015,07,18,14,59,29.20
2015,07,18,15,00,29.40
2015,07,18,15,01,29.50
2015,07,18,15,02,29.60
2015,07,18,15,03,29.80
2015,07,18,15,04,29.90
2015,07,18,15,05,30.00
2015,07,18,15,06,30.20
2015,07,18,15,07,30.30
2015,07,18,15,08,30.40
2015,07,18,15,09,30.60
2015,07,18,15,10,30.70
2015,07,18,15,11,30.70
2015,07,18,15,12,30.80
2015,07,18,15,13,30.80
2015,07,18,15,14,30.80
2015,07,18,15,15,30.70
2015,07,18,15,16,30.50
2015,07,18,15,17,30.30
2015,07,18,15,18,30.10
2015,07,18,15,19,29.90
2015,07,18,15,20,29.70
2015,07,18,15,21,29.60
2015,07,18,15,22,29.50
2015,07,18,15,23,29.30
2015,07,18,15,24,29.20
2015,07,18,15,25,29.10
2015,07,18,15,26,29.00
2015,07,18,15,27,28.90
2015,07,18,15,28,28.80
2015,07,18,15,29,28.90
2015,07,18,15,30,29.00
2015,07,18,15,31,29.10
2015,07,18,15,32,29.20
2015,07,18,15,33,29.30
2015,07,18,15,34,29.40
2015,07,18,15,35,29.50
2015,07,18,15,36,29.60
2015,07,18,15,37,29.60
2015,07,18,15,38,29.60
2015,07,18,15,39,29.50
2015,07,18,15,40,29.40
2015,07,18,15,41,29.40
2015,07,18,15,42,29.40
2015,07,18,15,43,29.40
2015,07,18,15,44,29.40
2015,07,18,15,45,29.40
2015,07,18,15,46,29.40
2015,07,18,15,47,29.40
2015,07,18,15,48,29.40
2015,07,18,15,49,29.30
2015,07,18,15,50,29.20
2015,07,18,15,51,29.10
2015,07,18,15,52,29.00
2015,07,18,15,53,28.90
2015,07,18,15,54,29.00
2015,07,18,15,55,29.10
2015,07,18,15,56,29.30
2015,07,18,15,57,29.50
2015,07,18,15,58,29.60
2015,07,18,15,59,29.80
2015,07,18,16,00,29.80
2015,07,18,16,01,29.90
2015,07,18,16,02,29.90
2015,07,18,16,03,30.00
2015,07,18,16,04,30.10
2015,07,18,16,05,30.10
2015,07,18,16,06,30.10
2015,07,18,16,07,30.00
2015,07,18,16,08,29.90
2015,07,18,16,09,29.80
2015,07,18,16,10,29.70
2015,07,18,16,11,29.50
2015,07,18,16,12,29.20
2015,07,18,16,13,28.90
2015,07,18,16,14,28.60
2015,07,18,16,15,28.30
2015,07,18,16,16,28.10
2015,07,18,16,17,27.90
2015,07,18,16,18,27.70
2015,07,18,16,19,27.50
2015,07,18,16,20,27.40
2015,07,18,16,21,27.20
2015,07,18,16,22,27.20
2015,07,18,16,23,27.20
2015,07,18,16,24,27.20
2015,07,18,16,25,27.20
2015,07,18,16,26,27.20
2015,07,18,16,27,27.00
2015,07,18,16,28,26.90
2015,07,18,16,29,26.80
2015,07,18,16,30,26.80
2015,07,18,16,31,26.70
2015,07,18,16,32,26.60
2015,07,18,16,33,26.40
2015,07,18,16,34,26.20
2015,07,18,16,35,26.10
2015,07,18,16,36,25.90
2015,07,18,16,37,25.80
2015,07,18,16,38,25.60
2015,07,18,16,39,25.50
2015,07,18,16,40,25.50
2015,07,18,16,41,25.40
2015,07,18,16,42,25.40
2015,07,18,16,43,25.50
2015,07,18,16,44,25.50
2015,07,18,16,45,25.60
2015,07,18,16,46,25.60
2015,07,18,16,47,25.70
2015,07,18,16,48,25.60
2015,07,18,16,49,25.60
2015,07,18,16,50,25.60
2015,07,18,16,51,25.60
2015,07,18,16,52,25.60
2015,07,18,16,53,25.80
2015,07,18,16,54,26.00
2015,07,18,16,55,26.10
2015,07,18,16,56,26.30
2015,07,18,16,57,26.40
2015,07,18,16,58,26.50
2015,07,18,16,59,26.50
2015,07,18,17,00,26.60
2015,07,18,17,01,26.70
2015,07,18,17,02,26.70
2015,07,18,17,03,26.80
2015,07,18,17,04,26.80
2015,07,18,17,05,26.90
2015,07,18,17,06,26.90
2015,07,18,17,07,26.90
2015,07,18,17,08,26.90
2015,07,18,17,09,26.80
2015,07,18,17,10,26.70
2015,07,18,17,11,26.60
2015,07,18,17,12,26.40
2015,07,18,17,13,26.30
2015,07,18,17,14,26.20
2015,07,18,17,15,26.10
2015,07,18,17,16,26.00
2015,07,18,17,17,26.00
2015,07,18,17,18,25.90
2015,07,18,17,19,26.00